パンスターズ彗星

P/2018 P3 ( PanSTARRS )

English version
Home page
Updated on February 9, 2019

---------------------------------------------------------------------

・ プロフィール

発見日 2018年8月8日
発見光度 21.0等
発見者 Pan-STARRS 1 telescope (Haleakala)

・ 写真集

・ 軌道要素

Epoch 2018 Oct. 9.0 TT = JDT 2458400.5
T 2018 Oct.  9.45843 TT                                 MPCW
q   1.7564485            (2000.0)            P               Q
n   0.18902481     Peri.  305.88345     +0.98765408     -0.08270480
a   3.0069313      Node    59.20996     +0.13595586     +0.87443023
e   0.4158668      Incl.    8.90912     -0.07781654     +0.47804989
P   5.21
From 222 observations 2018 Aug. 8-Dec. 14, mean residual 0".5.

・ 光度変化

        m1 = -27   + 5 logΔ + 180 log r(t-5)  [ ,5]  (              〜2018年11月12日)
        m1 =  12.6 + 5 logΔ +  18 log r       [5, ]  (2018年11月12日〜              )

---------------------------------------------------------------------

軌道要素はM.P.E.C. 2018-Y53に掲載されたものです。
光度グラフはComet for Windowsで作成したものです。

---------------------------------------------------------------------

Copyright(C) Seiichi Yoshida (comet@aerith.net). All rights reserved.